Time,TemperatureF,DewpointF,PressureIn,WindDirection,WindDirectionDegrees,WindSpeedMPH,WindSpeedGustMPH,Humidity,HourlyPrecipIn,Conditions,Clouds,dailyrainin,SoftwareType,DateUTC
2013-07-21 00:01:00,54.0,47.0,30.01,NNE,20,0.0,1.0,77,0.00,,,0.00,,2013-07-21 04:01:00,
2013-07-21 00:11:00,54.0,47.0,30.01,NNE,20,0.0,1.0,78,0.00,,,0.00,,2013-07-21 04:11:00,
2013-07-21 00:22:00,54.0,47.0,30.01,NNE,20,0.0,1.0,78,0.00,,,0.00,,2013-07-21 04:22:00,
2013-07-21 00:32:00,53.0,48.0,30.02,NNE,20,0.0,2.0,83,0.00,,,0.00,,2013-07-21 04:32:00,
2013-07-21 00:43:00,53.0,48.0,30.02,NNE,20,0.0,2.0,83,0.00,,,0.00,,2013-07-21 04:43:00,
2013-07-21 00:53:00,53.0,49.0,30.01,NNE,20,0.0,2.0,87,0.00,,,0.00,,2013-07-21 04:53:00,
2013-07-21 01:02:00,52.0,49.0,30.01,NNE,20,0.0,2.0,88,0.00,,,0.00,,2013-07-21 05:02:00,
2013-07-21 01:11:00,52.0,49.0,30.01,NNE,20,0.0,2.0,88,0.00,,,0.00,,2013-07-21 05:11:00,
2013-07-21 01:22:00,52.0,49.0,30.01,NNE,20,0.0,2.0,89,0.00,,,0.00,,2013-07-21 05:22:00,
2013-07-21 01:32:00,51.0,48.0,30.01,NNE,20,0.0,2.0,88,0.00,,,0.00,,2013-07-21 05:32:00,
2013-07-21 01:42:00,51.0,48.0,30.02,NNE,20,0.0,3.0,88,0.00,,,0.00,,2013-07-21 05:42:00,
2013-07-21 01:52:00,51.0,48.0,30.01,NNE,20,0.0,3.0,89,0.00,,,0.00,,2013-07-21 05:52:00,
2013-07-21 02:01:00,51.0,48.0,30.02,NNE,20,0.0,3.0,89,0.00,,,0.00,,2013-07-21 06:01:00,
2013-07-21 02:11:00,51.0,48.0,30.02,NNE,20,2.0,3.0,89,0.00,,,0.00,,2013-07-21 06:11:00,
2013-07-21 02:22:00,51.0,48.0,30.02,NNE,20,0.0,1.0,88,0.00,,,0.00,,2013-07-21 06:22:00,
2013-07-21 02:32:00,50.0,46.0,30.02,NNE,20,1.0,2.0,87,0.00,,,0.00,,2013-07-21 06:32:00,
2013-07-21 02:42:00,49.0,46.0,30.02,NNE,20,1.0,3.0,88,0.00,,,0.00,,2013-07-21 06:42:00,
2013-07-21 02:52:00,49.0,46.0,30.02,NNE,20,1.0,3.0,91,0.00,,,0.00,,2013-07-21 06:52:00,
2013-07-21 03:01:00,49.0,46.0,30.02,NNE,20,1.0,3.0,90,0.00,,,0.00,,2013-07-21 07:01:00,
2013-07-21 03:11:00,49.0,46.0,30.02,NNE,20,0.0,3.0,91,0.00,,,0.00,,2013-07-21 07:11:00,
2013-07-21 03:22:00,49.0,46.0,30.03,NNE,20,0.0,3.0,91,0.00,,,0.00,,2013-07-21 07:22:00,
2013-07-21 03:32:00,50.0,48.0,30.02,NNE,20,0.0,1.0,92,0.00,,,0.00,,2013-07-21 07:32:00,
2013-07-21 03:43:00,50.0,48.0,30.02,NNE,20,1.0,3.0,92,0.00,,,0.00,,2013-07-21 07:43:00,
2013-07-21 03:52:00,49.0,46.0,30.02,SE,130,2.0,3.0,91,0.00,,,0.00,,2013-07-21 07:52:00,
2013-07-21 04:01:00,49.0,46.0,30.02,SE,130,2.0,3.0,91,0.00,,,0.00,,2013-07-21 08:01:00,
2013-07-21 04:11:00,48.0,45.0,30.02,SE,130,1.0,3.0,91,0.00,,,0.00,,2013-07-21 08:11:00,
2013-07-21 04:22:00,48.0,45.0,30.01,SE,130,3.0,5.0,91,0.00,,,0.00,,2013-07-21 08:22:00,
2013-07-21 04:33:00,48.0,45.0,30.01,SE,132,3.0,5.0,91,0.00,,,0.00,,2013-07-21 08:33:00,
2013-07-21 04:43:00,47.0,45.0,30.01,SE,133,2.0,5.0,91,0.00,,,0.00,,2013-07-21 08:43:00,
2013-07-21 04:52:00,47.0,45.0,30.01,SE,133,2.0,4.0,91,0.00,,,0.00,,2013-07-21 08:52:00,
2013-07-21 05:02:00,46.0,44.0,30.01,SE,133,2.0,4.0,92,0.00,,,0.00,,2013-07-21 09:02:00,
2013-07-21 05:12:00,46.0,44.0,30.01,SE,133,1.0,4.0,92,0.00,,,0.00,,2013-07-21 09:12:00,
2013-07-21 05:22:00,46.0,44.0,30.01,SE,133,1.0,4.0,92,0.00,,,0.00,,2013-07-21 09:22:00,
2013-07-21 05:32:00,46.0,44.0,30.01,SE,133,1.0,4.0,92,0.00,,,0.00,,2013-07-21 09:32:00,
2013-07-21 05:42:00,46.0,44.0,30.01,SE,133,1.0,4.0,92,0.00,,,0.00,,2013-07-21 09:42:00,
2013-07-21 05:52:00,46.0,44.0,30.02,SE,133,3.0,4.0,93,0.00,,,0.00,,2013-07-21 09:52:00,
2013-07-21 06:02:00,46.0,44.0,30.02,SE,133,3.0,4.0,93,0.00,,,0.00,,2013-07-21 10:02:00,
2013-07-21 06:11:00,45.0,43.0,30.03,SE,133,1.0,4.0,93,0.00,,,0.00,,2013-07-21 10:11:00,
2013-07-21 06:22:00,45.0,43.0,30.03,SE,133,2.0,3.0,93,0.00,,,0.00,,2013-07-21 10:22:00,
2013-07-21 06:32:00,45.0,43.0,30.02,SE,133,1.0,3.0,93,0.00,,,0.00,,2013-07-21 10:32:00,
2013-07-21 06:43:00,44.0,42.0,30.03,SE,133,0.0,3.0,92,0.00,,,0.00,,2013-07-21 10:43:00,
2013-07-21 06:52:00,44.0,42.0,30.03,SE,133,0.0,3.0,93,0.00,,,0.00,,2013-07-21 10:52:00,
2013-07-21 07:02:00,45.0,43.0,30.04,SE,133,1.0,3.0,93,0.00,,,0.00,,2013-07-21 11:02:00,
2013-07-21 07:12:00,46.0,44.0,30.03,SW,234,1.0,3.0,94,0.00,,,0.00,,2013-07-21 11:12:00,
2013-07-21 07:22:00,46.0,44.0,30.03,SW,234,1.0,3.0,94,0.00,,,0.00,,2013-07-21 11:22:00,
2013-07-21 07:33:00,46.0,44.0,30.03,SW,235,1.0,3.0,94,0.00,,,0.00,,2013-07-21 11:33:00,
2013-07-21 07:43:00,46.0,44.0,30.03,SW,235,1.0,3.0,94,0.00,,,0.00,,2013-07-21 11:43:00,
2013-07-21 07:52:00,48.0,46.0,30.04,SW,216,2.0,3.0,94,0.00,,,0.00,,2013-07-21 11:52:00,
2013-07-21 08:01:00,48.0,46.0,30.04,SW,216,2.0,3.0,94,0.00,,,0.00,,2013-07-21 12:01:00,
2013-07-21 08:11:00,50.0,48.0,30.05,SW,214,2.0,4.0,94,0.00,,,0.00,,2013-07-21 12:11:00,
2013-07-21 08:22:00,50.0,48.0,30.05,SSW,213,3.0,3.0,93,0.00,,,0.00,,2013-07-21 12:22:00,
2013-07-21 08:32:00,51.0,49.0,30.05,SSW,213,0.0,3.0,92,0.00,,,0.00,,2013-07-21 12:32:00,
2013-07-21 08:43:00,52.0,49.0,30.05,East,84,1.0,3.0,89,0.00,,,0.00,,2013-07-21 12:43:00,
2013-07-21 08:53:00,54.0,51.0,30.05,East,84,1.0,3.0,88,0.00,,,0.00,,2013-07-21 12:53:00,
2013-07-21 09:02:00,54.0,50.0,30.05,East,84,0.0,3.0,86,0.00,,,0.00,,2013-07-21 13:02:00,
2013-07-21 09:12:00,56.0,52.0,30.05,East,85,1.0,3.0,85,0.00,,,0.00,,2013-07-21 13:12:00,
2013-07-21 09:22:00,56.0,51.0,30.04,West,271,1.0,3.0,83,0.00,,,0.00,,2013-07-21 13:22:00,
2013-07-21 09:32:00,57.0,52.0,30.04,West,271,0.0,3.0,84,0.00,,,0.00,,2013-07-21 13:32:00,
2013-07-21 09:43:00,59.0,53.0,30.05,West,271,1.0,3.0,81,0.00,,,0.00,,2013-07-21 13:43:00,
2013-07-21 09:52:00,59.0,53.0,30.05,West,272,1.0,3.0,80,0.00,,,0.00,,2013-07-21 13:52:00,
2013-07-21 10:01:00,59.0,53.0,30.05,West,272,1.0,3.0,80,0.00,,,0.00,,2013-07-21 14:01:00,
2013-07-21 10:12:00,60.0,53.0,30.05,NW,314,1.0,5.0,78,0.00,,,0.00,,2013-07-21 14:12:00,
2013-07-21 10:22:00,61.0,54.0,30.04,NNE,21,2.0,5.0,78,0.00,,,0.00,,2013-07-21 14:22:00,
2013-07-21 10:32:00,62.0,55.0,30.04,SW,226,1.0,5.0,78,0.00,,,0.00,,2013-07-21 14:32:00,
2013-07-21 10:43:00,63.0,55.0,30.04,NW,314,3.0,5.0,76,0.00,,,0.00,,2013-07-21 14:43:00,
2013-07-21 10:53:00,63.0,55.0,30.05,NW,317,3.0,5.0,75,0.00,,,0.00,,2013-07-21 14:53:00,
2013-07-21 11:02:00,64.0,56.0,30.05,WNW,286,4.0,6.0,74,0.00,,,0.00,,2013-07-21 15:02:00,
2013-07-21 11:11:00,64.0,56.0,30.05,WNW,286,4.0,6.0,74,0.00,,,0.00,,2013-07-21 15:11:00,
2013-07-21 11:22:00,64.0,56.0,30.05,SSW,211,2.0,5.0,74,0.00,,,0.00,,2013-07-21 15:22:00,
2013-07-21 11:32:00,65.0,56.0,30.06,West,267,3.0,6.0,72,0.00,,,0.00,,2013-07-21 15:32:00,
2013-07-21 11:43:00,65.0,55.0,30.06,WSW,256,6.0,7.0,70,0.00,,,0.00,,2013-07-21 15:43:00,
2013-07-21 11:53:00,65.0,55.0,30.06,WSW,239,3.0,7.0,70,0.00,,,0.00,,2013-07-21 15:53:00,
2013-07-21 12:01:00,66.0,56.0,30.05,WNW,283,2.0,7.0,69,0.00,,,0.00,,2013-07-21 16:01:00,
2013-07-21 12:11:00,66.0,55.0,30.05,NNW,340,4.0,7.0,67,0.00,,,0.00,,2013-07-21 16:11:00,
2013-07-21 12:22:00,66.0,55.0,30.05,NNW,339,3.0,6.0,67,0.00,,,0.00,,2013-07-21 16:22:00,
2013-07-21 12:32:00,66.0,54.0,30.05,NNW,340,3.0,6.0,66,0.00,,,0.00,,2013-07-21 16:32:00,
2013-07-21 12:43:00,66.0,54.0,30.05,NNW,340,3.0,6.0,66,0.00,,,0.00,,2013-07-21 16:43:00,
2013-07-21 12:52:00,66.0,54.0,30.05,NNW,340,3.0,6.0,66,0.00,,,0.00,,2013-07-21 16:52:00,
2013-07-21 13:02:00,69.0,56.0,30.04,NW,310,2.0,4.0,64,0.00,,,0.00,,2013-07-21 17:02:00,
2013-07-21 13:11:00,69.0,56.0,30.03,WNW,292,3.0,7.0,63,0.00,,,0.00,,2013-07-21 17:11:00,
2013-07-21 13:22:00,70.0,56.0,30.03,NW,312,3.0,6.0,62,0.00,,,0.00,,2013-07-21 17:22:00,
2013-07-21 13:33:00,71.0,55.0,30.03,NW,312,5.0,6.0,58,0.00,,,0.00,,2013-07-21 17:33:00,
2013-07-21 13:43:00,71.0,54.0,30.03,West,280,2.0,8.0,55,0.00,,,0.00,,2013-07-21 17:43:00,
2013-07-21 13:53:00,72.0,53.0,30.03,SSW,210,2.0,5.0,52,0.00,,,0.00,,2013-07-21 17:53:00,
2013-07-21 14:01:00,72.0,53.0,30.02,SW,221,4.0,6.0,51,0.00,,,0.00,,2013-07-21 18:01:00,
2013-07-21 14:11:00,73.0,53.0,30.02,SSE,162,3.0,6.0,49,0.00,,,0.00,,2013-07-21 18:11:00,
2013-07-21 14:22:00,74.0,52.0,30.02,WSW,242,4.0,5.0,47,0.00,,,0.00,,2013-07-21 18:22:00,
2013-07-21 14:32:00,74.0,52.0,30.02,ESE,120,0.0,5.0,47,0.00,,,0.00,,2013-07-21 18:32:00,
2013-07-21 14:43:00,74.0,52.0,30.02,SW,229,2.0,7.0,47,0.00,,,0.00,,2013-07-21 18:43:00,
2013-07-21 14:52:00,73.0,56.0,30.02,West,264,6.0,7.0,55,0.00,,,0.00,,2013-07-21 18:52:00,
2013-07-21 15:01:00,73.0,57.0,30.02,WNW,302,2.0,10.0,57,0.00,,,0.00,,2013-07-21 19:01:00,
2013-07-21 15:11:00,73.0,56.0,30.02,NW,318,3.0,10.0,56,0.00,,,0.00,,2013-07-21 19:11:00,
2013-07-21 15:22:00,73.0,57.0,30.01,NNW,331,3.0,10.0,57,0.00,,,0.00,,2013-07-21 19:22:00,
2013-07-21 15:32:00,73.0,56.0,30.01,South,176,1.0,6.0,56,0.00,,,0.00,,2013-07-21 19:32:00,
2013-07-21 15:42:00,73.0,58.0,30.01,NNW,338,2.0,10.0,59,0.00,,,0.00,,2013-07-21 19:42:00,
2013-07-21 15:52:00,73.0,58.0,30.01,NNW,338,2.0,10.0,59,0.00,,,0.00,,2013-07-21 19:52:00,
2013-07-21 16:01:00,72.0,58.0,30.01,North,353,9.0,9.0,62,0.00,,,0.00,,2013-07-21 20:01:00,
2013-07-21 16:12:00,71.0,58.0,30.01,North,351,3.0,9.0,63,0.00,,,0.00,,2013-07-21 20:12:00,
2013-07-21 16:22:00,70.0,59.0,30.01,NNW,347,6.0,10.0,67,0.00,,,0.00,,2013-07-21 20:22:00,
2013-07-21 16:32:00,70.0,59.0,30.01,North,4,4.0,10.0,67,0.00,,,0.00,,2013-07-21 20:32:00,
2013-07-21 16:43:00,70.0,59.0,30.01,North,4,4.0,10.0,67,0.00,,,0.00,,2013-07-21 20:43:00,
2013-07-21 16:52:00,70.0,58.0,30.01,North,356,6.0,10.0,66,0.00,,,0.00,,2013-07-21 20:52:00,
2013-07-21 17:01:00,70.0,58.0,30.00,NNE,17,7.0,10.0,65,0.00,,,0.00,,2013-07-21 21:01:00,
2013-07-21 17:11:00,70.0,57.0,30.00,North,7,9.0,10.0,64,0.00,,,0.00,,2013-07-21 21:11:00,
2013-07-21 17:22:00,70.0,57.0,30.00,NNW,337,4.0,9.0,64,0.00,,,0.00,,2013-07-21 21:22:00,
2013-07-21 17:32:00,70.0,57.0,30.00,NNW,337,4.0,9.0,64,0.00,,,0.00,,2013-07-21 21:32:00,
2013-07-21 17:43:00,69.0,56.0,29.99,NNE,15,8.0,9.0,64,0.00,,,0.00,,2013-07-21 21:43:00,
2013-07-21 17:52:00,69.0,56.0,29.99,North,358,6.0,7.0,64,0.00,,,0.00,,2013-07-21 21:52:00,
2013-07-21 18:01:00,69.0,56.0,29.99,North,358,6.0,7.0,64,0.00,,,0.00,,2013-07-21 22:01:00,
2013-07-21 18:11:00,70.0,57.0,29.98,North,4,5.0,7.0,64,0.00,,,0.00,,2013-07-21 22:11:00,
2013-07-21 18:22:00,70.0,56.0,29.97,NNW,338,3.0,6.0,62,0.00,,,0.00,,2013-07-21 22:22:00,
2013-07-21 18:32:00,70.0,57.0,29.97,North,358,3.0,8.0,63,0.00,,,0.00,,2013-07-21 22:32:00,
2013-07-21 18:43:00,70.0,58.0,29.97,North,358,5.0,8.0,65,0.00,,,0.00,,2013-07-21 22:43:00,
2013-07-21 18:52:00,70.0,58.0,29.96,NNW,339,4.0,8.0,65,0.00,,,0.00,,2013-07-21 22:52:00,
2013-07-21 19:02:00,69.0,57.0,29.96,NNW,334,2.0,7.0,66,0.00,,,0.00,,2013-07-21 23:02:00,
2013-07-21 19:11:00,69.0,57.0,29.96,North,1,3.0,7.0,66,0.00,,,0.00,,2013-07-21 23:11:00,
2013-07-21 19:22:00,69.0,57.0,29.96,NW,320,3.0,8.0,66,0.00,,,0.00,,2013-07-21 23:22:00,
2013-07-21 19:32:00,68.0,57.0,29.96,NNW,335,3.0,7.0,67,0.00,,,0.00,,2013-07-21 23:32:00,
2013-07-21 19:42:00,68.0,57.0,29.97,NW,325,3.0,7.0,68,0.00,,,0.00,,2013-07-21 23:42:00,
2013-07-21 19:52:00,68.0,57.0,29.97,NNW,332,3.0,5.0,68,0.00,,,0.00,,2013-07-21 23:52:00,
2013-07-21 20:01:00,68.0,57.0,29.97,NNW,344,3.0,5.0,68,0.00,,,0.00,,2013-07-22 00:01:00,
2013-07-21 20:11:00,68.0,57.0,29.97,NNW,344,3.0,5.0,68,0.00,,,0.00,,2013-07-22 00:11:00,
2013-07-21 20:22:00,67.0,58.0,29.97,NE,37,5.0,6.0,72,0.00,,,0.00,,2013-07-22 00:22:00,
2013-07-21 20:32:00,67.0,58.0,29.97,NE,37,5.0,6.0,72,0.00,,,0.00,,2013-07-22 00:32:00,
2013-07-21 20:42:00,66.0,56.0,29.97,North,10,2.0,6.0,71,0.00,,,0.00,,2013-07-22 00:42:00,
2013-07-21 20:53:00,66.0,56.0,29.97,North,9,3.0,4.0,70,0.00,,,0.00,,2013-07-22 00:53:00,
2013-07-21 21:02:00,66.0,56.0,29.97,North,9,2.0,4.0,70,0.00,,,0.00,,2013-07-22 01:02:00,
2013-07-21 21:12:00,66.0,56.0,29.96,North,9,3.0,4.0,71,0.00,,,0.00,,2013-07-22 01:12:00,
2013-07-21 21:22:00,66.0,56.0,29.96,North,9,1.0,3.0,71,0.00,,,0.00,,2013-07-22 01:22:00,
2013-07-21 21:32:00,66.0,57.0,29.96,North,9,1.0,3.0,73,0.00,,,0.00,,2013-07-22 01:32:00,
2013-07-21 21:42:00,66.0,57.0,29.96,North,9,0.0,3.0,73,0.00,,,0.00,,2013-07-22 01:42:00,
2013-07-21 21:52:00,66.0,57.0,29.96,North,9,0.0,3.0,74,0.00,,,0.00,,2013-07-22 01:52:00,
2013-07-21 22:02:00,65.0,57.0,29.96,North,9,1.0,2.0,75,0.00,,,0.00,,2013-07-22 02:02:00,
2013-07-21 22:11:00,65.0,57.0,29.96,North,9,1.0,3.0,75,0.00,,,0.00,,2013-07-22 02:11:00,
2013-07-21 22:22:00,65.0,57.0,29.96,North,9,0.0,3.0,75,0.00,,,0.00,,2013-07-22 02:22:00,
2013-07-21 22:32:00,65.0,57.0,29.96,North,9,1.0,3.0,75,0.00,,,0.00,,2013-07-22 02:32:00,
2013-07-21 22:43:00,65.0,57.0,29.96,North,9,0.0,3.0,75,0.00,,,0.00,,2013-07-22 02:43:00,
2013-07-21 22:52:00,65.0,57.0,29.96,North,9,0.0,0.0,76,0.00,,,0.00,,2013-07-22 02:52:00,
2013-07-21 23:01:00,65.0,57.0,29.96,North,9,0.0,0.0,76,0.00,,,0.00,,2013-07-22 03:01:00,
2013-07-21 23:12:00,65.0,58.0,29.96,North,9,0.0,2.0,77,0.00,,,0.00,,2013-07-22 03:12:00,
2013-07-21 23:22:00,65.0,58.0,29.95,North,9,0.0,0.0,77,0.00,,,0.00,,2013-07-22 03:22:00,
2013-07-21 23:33:00,65.0,58.0,29.95,North,9,0.0,0.0,77,0.00,,,0.00,,2013-07-22 03:33:00,
2013-07-21 23:43:00,65.0,58.0,29.96,North,9,0.0,2.0,78,0.00,,,0.00,,2013-07-22 03:43:00,
2013-07-21 23:53:00,65.0,58.0,29.96,North,9,0.0,2.0,78,0.00,,,0.00,,2013-07-22 03:53:00,